CDT,Max TemperatureF,Mean TemperatureF,Min TemperatureF,Max Dew PointF,MeanDew PointF,Min DewpointF,Max Humidity, Mean Humidity, Min Humidity, Max Sea Level PressureIn, Mean Sea Level PressureIn, Min Sea Level PressureIn, Max VisibilityMiles, Mean VisibilityMiles, Min VisibilityMiles, Max Wind SpeedMPH, Mean Wind SpeedMPH, Max Gust SpeedMPH,PrecipitationIn, CloudCover, Events, WindDirDegrees
2013-10-1,71,59,47,50,40,31,74,48,22,29.94,29.77,29.55,10,10,9,28,13,35,T,1,Rain,263
2013-10-2,67,55,42,47,42,36,89,67,44,30.01,29.97,29.94,10,10,10,21,6,24,T,4,,73
2013-10-3,57,50,42,48,44,40,93,82,71,30.10,30.01,29.96,10,10,10,20,11,25,0.00,4,,10
2013-10-4,50,47,44,45,42,38,86,80,74,30.17,30.08,29.94,10,7,2,30,21,39,0.29,8,Rain,15
2013-10-5,54,50,46,48,45,44,93,85,77,29.95,29.85,29.80,10,6,1,24,17,31,0.91,8,Rain,28
2013-10-6,63,53,42,43,40,37,89,66,42,29.92,29.88,29.83,10,8,2,25,13,32,0.20,5,Rain,326
2013-10-7,67,51,35,43,38,34,85,60,34,29.99,29.91,29.80,10,10,10,17,5,24,0.00,0,,193
2013-10-8,75,61,47,50,46,40,86,62,38,29.78,29.67,29.60,10,10,10,20,10,28,0.00,0,,182
2013-10-9,73,58,42,46,42,38,93,61,29,29.99,29.93,29.78,10,10,9,10,6,15,0.00,0,,6
2013-10-10,74,64,53,55,50,44,83,66,49,29.93,29.81,29.68,10,10,10,22,10,29,0.00,3,,127
2013-10-11,69,61,53,58,53,46,84,66,47,29.70,29.50,29.35,10,8,1,32,20,44,0.37,5,Rain,146
2013-10-12,56,47,37,46,42,33,93,72,50,30.21,29.78,29.45,10,7,2,25,15,32,0.17,7,Rain,268
2013-10-13,59,46,33,43,35,30,89,65,40,30.41,30.35,30.22,10,10,10,12,5,14,0.01,3,Rain,196
2013-10-14,51,48,44,43,41,37,92,77,61,30.37,30.20,30.04,10,5,1,22,12,28,1.27,8,Rain,80
2013-10-15,45,40,34,41,39,31,89,81,73,30.07,29.99,29.93,10,7,4,28,18,35,0.56,8,Rain,5
2013-10-16,60,45,29,39,34,27,92,66,40,30.06,29.93,29.83,10,10,7,16,7,21,0.00,1,,217
2013-10-17,48,40,31,41,35,27,83,68,53,30.00,29.92,29.82,10,10,10,23,12,28,T,7,Rain,336
2013-10-18,51,40,28,36,31,25,92,71,50,30.00,29.93,29.79,10,10,6,26,8,33,0.04,6,Rain,248
2013-10-19,47,40,32,36,32,29,92,79,65,29.81,29.77,29.70,10,10,10,18,7,23,0.02,7,Rain,307
2013-10-20,41,38,34,36,31,22,92,74,56,30.01,29.77,29.61,10,7,2,25,13,31,0.33,8,Rain-Snow,34
2013-10-21,41,36,31,27,23,20,70,62,54,30.02,30.01,29.98,10,10,10,17,8,22,0.00,7,,325
2013-10-22,41,36,30,28,26,23,82,66,50,30.11,30.08,30.02,10,10,10,14,8,17,0.00,7,,324
2013-10-23,40,36,32,31,25,21,82,65,48,30.20,30.13,30.07,10,10,2,20,9,23,T,8,Snow,321
2013-10-24,43,36,29,31,29,26,92,75,57,30.33,30.28,30.19,10,10,7,16,7,20,T,7,Rain,286
2013-10-25,60,43,26,39,30,22,85,62,39,30.31,30.01,29.78,10,10,10,32,14,39,0.00,0,,236
2013-10-26,44,38,31,28,26,24,72,63,53,30.20,30.10,29.94,10,10,10,21,11,25,0.00,5,,288
2013-10-27,50,40,30,31,27,24,75,60,45,30.33,29.97,29.78,10,10,10,28,14,32,0.00,3,,351
2013-10-28,38,30,22,23,18,15,84,62,40,30.59,30.50,30.35,10,10,7,17,10,21,0.00,0,,25
2013-10-29,37,30,23,29,23,17,75,70,64,30.50,30.31,30.13,10,10,9,8,2,9,T,7,,39
2013-10-30,39,37,35,36,34,28,92,84,75,30.13,29.92,29.72,10,4,1,9,2,10,0.01,8,,205
2013-10-31,45,41,37,38,36,33,92,81,70,29.70,29.54,29.45,9,5,2,12,6,14,T,8,Rain,245